"Pseudo-MPEC" for P10RpSS

Created 2019 Sep 19 16:07:17 UT using Find_Orb

Click here for an explanation of pseudo-MPECs

 
 Astrometry: 
     P10RpSS  C2019 09 06FNv?I8f1g+q)O%j6%(^b?cSSLbZkEZ?Ayyjk?U2K'3.V8Slq[*YUF51
     P10RpSS  C2019 09 06G2bsuvdtV];06_!V:4'u!iQ9BwdX'DgO0O_LgY\$tl;YHKN6,I7uF51
     P10RpSS  C2019 09 06U*RnP4l=c#ler,vUeJ!^#Q29]5*2jhPw7Z1)wN`j9#yqeIMEaPvsF51
     P10RpSS  C2019 09 06D3c(E-KP*b0ok.CRR7/n7.@V1G!sQwFOdc2cq]9!E$AstrometryF51
     P10RpSS |C2019 09 08qj2nv++fBm`xY-y,_P,4npFXg]qB(OmMab#YmcFredacted;jV,B807
     P10RpSS |C2019 09 08invOS\Au,B-M%$ob.=5I%l)LU)pclick2i9U]5here+joA2jMTw3807
     P10RpSS |C2019 09 19VIudfd3EWpL2foryBxC5T$9KtZ]akp;XLTj_W*uN0b'-`JBnQ!-O807
     P10RpSS |C2019 09 19A9m\^cwippYUi7_?JFWAqS5TwX]KQU/nR%^vqW?b=7'ANx_yQN!`807
     P10RpSS |C2019 09 19K3CexplanationD^NymC+r'.HxeA;\YB#Qp!jI-$GD7DhusgBLow807

Station data:
(807) Cerro Tololo Observatory, La Serena  (S30.169136 W70.805900)  Chile.
(F51) Pan-STARRS 1, Haleakala  (N20.707235 W156.255910)  US/Hawaii.
   Observers N. Primak, A. Schultz, S. Watters, J. Thiel, T. Goggia. Measurer
   PS1 Science Consortium. 1.8-m Ritchey-Chrétien + CCD.

Orbital elements:  P10RpSS
   Perihelion 2020 Jun 13.378189 +/- 2.48 TT =  9:04:35 (JD 2459013.878189)
Epoch 2019 Sep 19.0 TT = JDT 2458745.5   Earth MOID: 0.6745   Ma: 0.0424
M 256.15505583 +/- 0.8              (J2000 ecliptic)          AutoNEOCP
n   0.38693511 +/- 0.000677         Peri.  302.60214 +/- 0.6
a   1.86513650 +/- 0.00218          Node   157.09755 +/- 0.018
e   0.1441118 +/- 0.000967          Incl.   23.12340 +/- 0.14
P   2.55/930.37d           H 19.9   G  0.15   U  7.9  
q 1.59634830 +/- 0.00292    Q 2.13392471 +/- 0.00264
From 9 observations 2019 Sept. 6-19; mean residual 0".08
Residuals in arcseconds: 
190906 F51  .00   .00     190906 F51  .08+  .10+    190919 807  .01+  .10+    
190906 F51  .17-  .14-    190908 807  .02+  .09+    190919 807  .02+  .08-    
190906 F51  .09+  .05+    190908 807  .02-  .09-    190919 807  .03-  .02-    

Ephemerides (geocentric):
Date (UTC) HH   RA              Dec         delta   r     elong  mag " sig PA
---- -- -- --  -------------   -----------  ------ ------ -----  --- ---- ---
2019 09 19 16  21 54 41.361   -15 43 01.05  1.0315 1.9627 149.1 22.3 .218  95
2019 09 19 17  21 54 39.774   -15 43 48.07  1.0317 1.9626 149.1 22.3 .232  95
2019 09 19 18  21 54 38.190   -15 44 35.05  1.0319 1.9626 149.0 22.3 .246  95
2019 09 19 19  21 54 36.609   -15 45 21.99  1.0321 1.9625 149.0 22.3 .261  94
2019 09 19 20  21 54 35.032   -15 46 08.90  1.0323 1.9624 148.9 22.3 .275  94
2019 09 19 21  21 54 33.458   -15 46 55.77  1.0325 1.9624 148.9 22.3 .290  94
2019 09 19 22  21 54 31.887   -15 47 42.60  1.0327 1.9623 148.8 22.3 .304  94
2019 09 19 23  21 54 30.319   -15 48 29.39  1.0329 1.9622 148.8 22.3 .319  94
2019 09 20 00  21 54 28.755   -15 49 16.15  1.0331 1.9622 148.7 22.3 .334  94
2019 09 20 01  21 54 27.193   -15 50 02.87  1.0333 1.9621 148.7 22.3 .349  94
2019 09 20 02  21 54 25.635   -15 50 49.55  1.0335 1.9620 148.6 22.3 .364  93
2019 09 20 03  21 54 24.081   -15 51 36.19  1.0337 1.9620 148.6 22.3 .380  93
2019 09 20 04  21 54 22.529   -15 52 22.80  1.0339 1.9619 148.5 22.3 .395  93
2019 09 20 05  21 54 20.981   -15 53 09.37  1.0341 1.9618 148.5 22.3 .411  93
2019 09 20 06  21 54 19.436   -15 53 55.90  1.0343 1.9618 148.4 22.3 .426  93
2019 09 20 07  21 54 17.894   -15 54 42.39  1.0345 1.9617 148.4 22.3 .442  93
2019 09 20 08  21 54 16.355   -15 55 28.84  1.0347 1.9616 148.3 22.3 .458  93
2019 09 20 09  21 54 14.820   -15 56 15.26  1.0349 1.9616 148.3 22.3 .474  93
2019 09 20 10  21 54 13.288   -15 57 01.64  1.0351 1.9615 148.2 22.3 .490  92
2019 09 20 11  21 54 11.760   -15 57 47.98  1.0353 1.9614 148.2 22.3 .506  92
2019 09 20 12  21 54 10.234   -15 58 34.28  1.0355 1.9614 148.1 22.3 .522  92
2019 09 20 13  21 54 08.712   -15 59 20.55  1.0357 1.9613 148.1 22.3 .539  92
2019 09 20 14  21 54 07.193   -16 00 06.77  1.0359 1.9612 148.0 22.3 .555  92
2019 09 20 15  21 54 05.678   -16 00 52.96  1.0361 1.9612 148.0 22.3 .572  92
2019 09 20 16  21 54 04.166   -16 01 39.11  1.0363 1.9611 147.9 22.3 .589  92
2019 09 20 17  21 54 02.657   -16 02 25.23  1.0365 1.9610 147.9 22.3 .606  92
2019 09 20 18  21 54 01.151   -16 03 11.30  1.0367 1.9610 147.8 22.3 .623  92
2019 09 20 19  21 53 59.649   -16 03 57.33  1.0369 1.9609 147.7 22.3 .640  92
2019 09 20 20  21 53 58.150   -16 04 43.33  1.0371 1.9608 147.7 22.3 .657  92
2019 09 20 21  21 53 56.654   -16 05 29.29  1.0373 1.9608 147.6 22.3 .675  92
2019 09 20 22  21 53 55.162   -16 06 15.21  1.0375 1.9607 147.6 22.3 .692  91
2019 09 20 23  21 53 53.673   -16 07 01.09  1.0377 1.9606 147.5 22.4 .710  91
2019 09 21 00  21 53 52.187   -16 07 46.94  1.0379 1.9606 147.5 22.4 .728  91
2019 09 21 01  21 53 50.705   -16 08 32.74  1.0381 1.9605 147.4 22.4 .746  91
2019 09 21 02  21 53 49.226   -16 09 18.51  1.0383 1.9604 147.4 22.4 .764  91
2019 09 21 03  21 53 47.750   -16 10 04.24  1.0385 1.9603 147.3 22.4 .782  91
2019 09 21 04  21 53 46.278   -16 10 49.92  1.0388 1.9603 147.3 22.4 .800  91
2019 09 21 05  21 53 44.809   -16 11 35.58  1.0390 1.9602 147.2 22.4 .818  91
2019 09 21 06  21 53 43.343   -16 12 21.19  1.0392 1.9601 147.2 22.4 .837  91
2019 09 21 07  21 53 41.881   -16 13 06.76  1.0394 1.9601 147.1 22.4 .855  91
2019 09 21 08  21 53 40.422   -16 13 52.29  1.0396 1.9600 147.1 22.4 .874  91
2019 09 21 09  21 53 38.966   -16 14 37.79  1.0398 1.9599 147.0 22.4 .893  91
2019 09 21 10  21 53 37.514   -16 15 23.25  1.0400 1.9599 147.0 22.4 .912  91
2019 09 21 11  21 53 36.065   -16 16 08.66  1.0402 1.9598 146.9 22.4 .931  91
2019 09 21 12  21 53 34.620   -16 16 54.04  1.0404 1.9597 146.9 22.4 .950  90
2019 09 21 13  21 53 33.178   -16 17 39.38  1.0406 1.9597 146.8 22.4 .970  90
2019 09 21 14  21 53 31.739   -16 18 24.68  1.0409 1.9596 146.8 22.4 .989  90
2019 09 21 15  21 53 30.304   -16 19 09.94  1.0411 1.9595 146.7 22.4 1.01  90